Regional Weather Roundup
Issued by NWS Green Bay, WI

Home | Current Version | Previous Version | Graphics & Text | Print | Product List | Glossary Off
Versions: 1 2 3 4 5 6 7 8 9 10 11 12 13 14 15 16 17 18 19 20 21 22 23 24 25 26 27 28 29 30 31 32 33 34 35 36 37 38 39 40 41 42 43 44 45 46 47 48 49 50

000
ASUS43 KGRB 171300
RWRGRB

NORTH-CENTRAL AND NORTHEAST WISCONSIN REGIONAL WEATHER ROUNDUP
NATIONAL WEATHER SERVICE GREEN BAY WI
700 AM CST WED JAN 17 2018

WIZ005-009-010>012-018-019-171400-
NORTH CENTRAL WISCONSIN

CITY           SKY/WX    TMP DP  RH WIND       PRES   REMARKS
IRONWOOD       FAIR       9  -1  64 SW14      30.17F WCI  -7
MANITOWISH WTR NOT AVBL
ARBOR VITAE    NOT AVBL
EAGLE RIVER    FAIR       5  -2  72 W10       30.18F WCI -10
LAND O LAKES   NOT AVBL
RHINELANDER    FAIR       5  -1  76 W14       30.22F WCI -12
PHILLIPS       FAIR       1  -4  79 SW10G16   30.25F WCI -15
ANTIGO         NOT AVBL
TOMAHAWK       NOT AVBL
MERRILL        FAIR       1  -3  83 CALM      30.32S
$$

WIZ013-073-171400-
NORTHEAST WISCONSIN

CITY           SKY/WX    TMP DP  RH WIND       PRES   REMARKS
IRON MOUNTAIN  FAIR      11   0  61 W9        30.17F WCI  -2
MARINETTE      MOCLDY     7   3  84 W8G17     30.30F WCI  -6
$$

WIZ017-030-035>037-045-171400-
CENTRAL WISCONSIN

CITY           SKY/WX    TMP DP  RH WIND       PRES   REMARKS
MEDFORD        NOT AVBL
WAUSAU         FAIR       1  -3  83 CALM      30.32F
MOSINEE        NOT AVBL
MARSHFIELD     FAIR      -1  -4  87 W8        30.34S WCI -15
WISC RAPIDS    FAIR       1  -5  75 W7        30.40F WCI -12
STEVENS POINT  NOT AVBL
WAUPACA        NOT AVBL
SHAWANO        FAIR       7   1  76 SW10G16   30.34F WCI  -7
CLINTONVILLE   NOT AVBL
WAUTOMA        CLOUDY     2  -2  83 SW7       30.41F WCI -11
$$

WIZ038-039-048-051-171400-
FOX VALLEY

CITY           SKY/WX    TMP DP  RH WIND       PRES   REMARKS
NWS GREEN BAY  MOCLDY     5  -1  76 SW10      30.37F WCI -10
APPLETON       MOCLDY     3  -4  72 W14       30.36F WCI -15
OSHKOSH        CLOUDY     5   0  79 SW5       30.40F WCI  -4
FOND DU LAC    CLOUDY     4  -2  76 SW8       30.42F WCI  -9
$$

WIZ022-050-052-171400-
EAST CENTRAL WISCONSIN

CITY           SKY/WX    TMP DP  RH WIND       PRES   REMARKS
EPHRAIM        NOT AVBL
WASHINGTON ISL NOT AVBL
STURGEON BAY   FAIR       5   1  83 SW15      30.31F WCI -13
MANITOWOC      CLOUDY     7   2  80 SW14G20   30.38F WCI -10
SHEBOYGAN      CLOUDY     8   3  80 W10       30.40F WCI  -6
$$

LMZ563-521-522-541>543-171400-
LAKESHORE

STATION/POSITION TIME  TEMP    WIND        PRES    VSBY  WAVE
                       AIR SEA DIR/SP/G                  HT/PER
                 (UTC) (F)     (DEG/KT/KT) (MB)    (MI)  (FT/S)
SHEBOYGAN LKSHOR 1200    8     260/ 12/ 14 1031.5F
KEWAUNEE LKSHORE 1230    8     260/ 10/ 15 1027.0F
NORTHPORT PIER   1240    7     240/ 11/ 37 1025.1F
MENOMINEE LKSHOR 1230    6     220/ 12/ 16 1025.9F
$$




USA.gov is the U.S. government's official web portal to all federal, state and local government web resources and services.